Lapse_Rate
4.7 4.8 4.9 5.6 6.5 6.5 6.5 6.5 6.5 6.5 6.5 7.2 7.5 6.9 6.6 7.1 6.6 6.5 7.8 8.4 7.1 8.1 7.3 7.0 5.8 5.9 5.7 5.5 5.5 5.3 5.6 5.8 5.8 5.8 5.7 6.2 6.2 6.3 6.1 6.2 5.5 5.5 6.1 6.6 5.1 5.5 5.7 6.6 6.8
5.4 5.2 5.1 6.1 6.5 6.5 6.5 6.5 6.5 6.5 7.0 7.6 7.6 7.4 6.9 6.5 8.1 6.8 7.8 7.8 7.5 8.6 8.3 7.5 5.7 5.5 5.5 5.7 5.8 5.7 5.9 6.0 5.8 5.8 6.1 6.0 6.0 6.0 6.8 6.5 5.9 5.9 6.6 6.7 6.0 5.7 6.0 6.1 6.6
5.3 5.2 6.6 6.5 6.5 6.4 6.5 6.5 6.5 6.8 7.3 7.3 7.0 7.8 7.5 7.1 7.6 8.2 7.6 8.3 9.1 9.0 8.7 6.8 5.5 5.2 5.4 5.9 5.9 5.9 5.8 5.7 5.7 5.7 5.7 5.8 5.7 6.6 6.4 6.3 6.0 6.3 6.9 6.6 5.6 6.2 6.5 6.7 6.4
6.3 6.4 6.6 6.5 6.5 6.5 6.5 6.5 6.7 6.7 7.3 7.6 7.5 6.6 8.0 8.5 7.8 8.8 7.9 7.9 9.1 8.0 8.9 6.1 5.4 5.4 6.0 5.6 5.6 5.6 5.6 5.7 5.9 5.9 5.8 6.0 6.3 6.3 6.9 6.0 6.0 6.4 6.7 7.5 6.8 6.3 6.6 6.9 6.7
5.7 6.0 6.5 6.5 6.5 6.5 6.5 6.9 7.0 6.5 6.8 7.1 7.4 6.7 7.3 8.4 8.2 8.1 7.9 8.1 9.2 8.8 8.9 7.1 5.8 5.7 5.7 5.3 5.3 5.5 5.8 6.3 6.5 6.9 6.9 6.9 6.9 6.9 6.4 6.6 6.1 6.2 6.8 7.3 7.6 7.5 7.4 7.1 7.1
7.2 7.2 6.5 6.5 6.5 6.5 6.6 7.2 7.0 6.8 7.1 7.3 7.1 7.2 7.5 7.8 6.9 7.8 8.6 8.4 8.7 8.7 9.3 8.1 7.4 6.8 5.5 5.5 5.6 5.7 5.8 5.6 5.6 6.1 6.4 6.7 6.8 7.2 7.1 6.7 6.1 6.2 6.6 6.9 7.3 7.4 7.5 7.4 7.4
6.7 6.5 6.5 6.5 6.5 6.5 6.5 7.4 6.7 6.7 6.8 6.9 7.8 6.6 7.1 6.6 7.3 7.7 7.7 8.1 8.8 8.2 8.8 8.7 7.9 6.9 6.1 5.6 5.7 5.6 5.6 5.9 5.9 6.3 6.3 7.3 6.7 7.1 6.9 6.8 6.6 6.7 6.8 6.9 6.9 6.9 7.1 7.3 7.3
7.3 6.4 6.5 6.5 6.5 6.5 6.7 7.1 7.5 7.0 6.8 8.2 7.9 6.6 6.9 6.7 7.2 7.2 6.6 7.3 7.4 7.3 8.1 7.6 6.8 7.3 6.9 6.7 5.8 5.7 5.8 6.1 6.3 5.6 5.9 6.0 5.5 5.1 5.1 6.9 7.2 7.0 7.0 7.1 6.9 6.9 7.0 7.3 7.1
6.8 6.5 6.5 6.5 6.5 6.5 7.1 6.6 7.5 8.0 7.4 7.7 8.0 7.8 7.3 5.0 6.6 6.8 6.2 6.6 7.5 6.3 6.8 6.5 6.6 6.6 6.3 6.9 6.8 6.2 6.3 6.4 6.7 5.9 6.4 6.0 5.4 6.1 5.2 5.8 7.2 7.0 6.9 7.0 7.0 7.0 6.9 6.5 7.1
6.7 6.5 6.5 6.5 6.6 6.5 6.9 6.9 7.1 7.0 7.1 7.2 7.3 6.6 6.3 5.8 6.6 6.2 6.6 7.3 8.6 7.2 5.8 6.5 6.3 5.8 5.7 6.4 6.0 6.0 6.4 7.7 6.2 6.1 6.2 5.0 5.2 5.2 5.9 7.3 7.0 6.7 6.9 6.3 6.5 6.0 6.7 5.9 7.3
6.8 6.5 6.4 6.7 7.0 7.2 6.9 6.9 7.5 6.8 6.5 7.2 7.1 7.4 7.2 6.8 8.0 8.3 7.9 8.5 8.7 7.4 6.4 6.0 6.0 5.1 5.9 6.1 5.9 6.4 5.2 6.9 6.2 5.8 5.0 5.5 6.3 6.8 7.5 7.5 7.4 6.3 6.8 7.7 6.6 7.3 7.7 7.5 7.1
6.5 6.8 6.9 6.9 7.2 7.1 6.6 7.3 6.8 7.1 7.0 7.6 6.9 5.3 6.6 7.8 7.8 8.2 8.3 7.8 7.1 5.2 5.6 6.4 6.2 5.7 5.9 6.3 5.8 5.9 3.2 4.9 6.9 6.2 5.3 6.4 6.5 6.8 7.0 6.0 5.5 5.7 6.2 7.5 6.7 6.5 7.1 7.0 7.0
6.5 6.6 7.0 7.1 7.1 7.2 7.3 6.8 6.8 7.0 7.7 6.4 7.5 7.2 7.5 8.0 7.1 7.9 7.3 6.1 5.2 4.1 5.1 5.5 5.7 5.7 5.3 5.5 6.0 3.0 4.7 5.0 4.7 6.1 5.9 6.4 7.0 7.3 7.1 6.9 5.2 5.8 5.9 7.3 7.2 7.2 6.9 6.6 6.7
7.0 6.8 6.9 7.1 7.0 7.2 6.7 6.7 7.0 7.3 7.5 7.3 7.7 7.8 8.0 7.8 7.5 7.2 5.6 3.9 3.7 4.7 5.3 5.7 4.9 5.3 5.3 5.9 5.5 4.6 5.5 4.8 4.1 4.6 6.2 5.4 6.4 6.6 7.0 7.1 7.1 6.7 6.4 7.3 7.0 6.2 5.9 5.4 6.0
7.0 6.5 6.5 6.7 6.9 6.6 7.2 6.5 6.5 7.4 7.7 7.5 7.8 7.9 8.0 7.8 7.6 5.5 5.0 4.0 2.8 3.2 5.3 4.4 4.9 5.5 5.3 6.0 5.8 6.0 6.3 4.7 3.8 5.3 4.4 5.8 5.4 5.3 6.1 6.7 6.9 6.6 6.4 6.3 6.6 6.5 6.2 6.4 4.3
6.4 6.5 6.5 6.5 6.6 6.8 6.8 6.5 6.5 7.6 7.5 7.3 7.5 7.7 7.9 7.8 7.1 6.6 5.7 5.0 3.9 5.1 5.2 3.9 4.7 5.0 5.2 6.4 6.1 6.3 5.8 6.1 5.7 4.9 4.6 5.2 4.9 4.9 5.2 6.6 7.2 7.1 6.5 6.8 7.7 7.4 6.2 6.1 6.1
6.5 6.6 6.5 6.5 6.7 6.5 6.5 6.5 6.6 7.6 7.5 7.2 7.4 7.6 7.7 7.9 8.0 8.0 6.4 5.5 5.3 5.7 5.6 4.0 5.1 4.6 4.4 5.9 6.2 5.7 5.8 5.9 5.8 6.3 6.1 5.7 4.8 3.3 4.9 6.3 6.8 6.5 7.1 7.2 7.4 6.6 6.2 5.7 4.7
6.5 6.4 6.5 6.5 6.5 6.5 6.5 6.5 6.5 7.3 7.3 7.2 7.4 7.7 7.6 7.7 7.7 6.7 6.8 6.0 6.5 6.1 5.5 4.1 4.2 4.6 5.0 6.1 6.0 6.0 6.0 5.9 6.0 6.0 6.3 5.6 5.5 4.7 5.0 5.3 6.1 6.3 7.4 7.4 7.3 6.5 6.2 4.3 6.3
6.5 6.5 6.5 6.5 6.5 6.5 6.5 6.5 6.5 7.0 7.2 7.0 7.4 7.5 7.5 7.7 8.2 6.2 6.3 6.5 6.4 5.6 3.2 3.7 4.3 5.0 4.7 5.6 6.0 5.9 6.4 5.8 5.9 5.9 6.3 5.8 5.6 5.4 5.0 6.0 6.3 6.1 6.6 7.0 6.8 6.8 5.6 7.4 6.8
6.5 6.5 6.5 6.5 6.5 6.5 6.5 6.5 6.5 6.7 6.9 7.2 7.3 7.4 7.6 7.9 8.0 6.4 6.8 7.3 5.3 3.8 4.9 4.6 3.5 5.4 4.6 6.6 6.3 6.3 6.0 6.5 7.3 6.7 6.3 5.5 4.5 5.5 4.4 4.6 6.4 6.5 7.1 6.2 6.4 6.4 6.7 7.5 6.8
6.5 6.5 6.5 6.5 6.5 6.5 6.5 6.5 6.5 6.5 7.1 7.3 7.5 7.7 7.9 7.8 8.1 8.1 7.5 8.2 7.6 6.0 5.0 5.1 4.2 5.8 5.4 6.3 6.2 6.0 6.0 6.0 6.4 6.1 5.9 3.5 3.4 4.5 3.8 4.7 5.8 6.3 6.4 7.3 6.5 6.5 6.5 7.8 6.6
6.5 6.5 6.4 6.5 6.5 6.5 6.5 6.5 6.5 6.5 6.5 6.5 7.2 7.5 7.7 7.8 7.9 8.3 8.0 8.1 7.9 6.9 6.7 6.1 6.1 6.1 6.3 6.3 6.4 6.2 6.4 6.6 6.9 6.7 4.7 3.9 3.9 4.0 5.6 5.7 6.2 6.3 6.9 6.4 6.7 6.8 6.7 6.4 6.7
6.5 6.5 6.5 6.5 6.5 6.5 6.5 6.5 6.5 6.5 6.6 6.5 6.9 7.4 7.8 7.9 7.9 8.0 6.8 7.5 8.6 7.1 7.1 7.2 6.4 6.2 6.3 5.8 6.0 6.3 6.3 7.0 6.5 4.5 3.6 3.5 4.0 5.7 5.0 5.9 6.1 6.2 6.8 6.4 6.5 6.5 6.1 6.7 5.7
6.5 6.5 6.5 6.5 6.5 6.5 6.5 6.5 6.5 6.5 6.5 6.5 6.8 7.4 7.5 7.7 7.3 7.0 6.9 7.2 7.7 7.0 7.1 7.0 6.3 6.0 5.9 5.7 5.8 5.8 6.2 6.3 6.3 6.1 6.1 4.5 4.7 5.6 6.1 6.1 6.2 6.2 6.7 6.5 6.8 6.8 6.6 6.5 6.6
6.5 6.5 6.5 6.5 6.5 6.5 6.5 6.5 6.5 6.5 6.5 6.5 6.7 7.2 7.6 7.7 7.5 7.5 6.5 7.3 7.7 6.7 6.8 6.9 6.3 6.2 6.0 5.8 5.9 5.9 6.1 6.3 6.1 6.5 7.0 6.1 5.6 5.2 6.0 6.2 6.2 6.6 6.4 6.6 6.7 6.6 6.7 6.5 6.6
6.5 6.5 6.5 6.5 6.5 6.5 6.5 6.5 6.5 6.5 7.0 7.2 7.3 7.6 7.8 7.8 8.0 7.9 6.9 7.4 6.6 6.5 6.6 6.7 6.5 6.1 6.2 6.2 6.0 5.9 6.2 6.9 7.0 6.3 5.9 5.9 5.1 5.3 5.4 6.1 6.4 6.5 6.3 6.6 6.7 7.2 7.2 7.1 7.1
6.5 6.5 6.5 6.5 6.5 6.5 6.5 6.5 6.5 6.5 6.5 6.8 7.0 7.4 7.5 7.7 8.0 7.9 7.0 7.2 6.4 6.4 6.0 6.1 6.0 6.2 6.3 6.5 6.3 5.9 6.0 5.9 5.9 4.6 2.7 3.0 4.3 5.0 5.5 5.6 5.9 6.1 6.3 6.4 6.5 6.9 6.7 7.0 7.1
6.6 6.5 6.5 6.5 6.5 6.5 6.5 6.5 6.5 6.5 6.5 6.5 6.6 7.2 7.5 7.8 7.9 8.1 8.2 7.3 6.9 7.1 6.6 6.5 6.4 6.6 6.3 6.6 6.6 6.4 5.9 5.9 5.9 5.0 4.9 4.7 4.4 5.2 4.8 4.6 5.5 6.2 6.3 6.4 6.1 6.8 6.5 6.7 7.2
6.5 6.5 6.5 6.5 6.5 6.5 6.5 6.5 6.5 6.5 6.5 6.5 6.7 7.3 7.6 7.7 7.8 8.0 8.2 7.7 7.2 7.2 6.8 7.0 6.3 6.4 6.4 6.6 6.4 6.3 6.1 6.2 5.9 6.3 5.2 5.7 6.0 5.9 5.5 4.7 5.1 5.9 6.3 6.5 6.2 6.5 6.9 6.5 6.6
6.5 6.5 6.5 6.5 6.5 6.5 6.5 6.5 6.5 6.5 6.4 6.9 7.0 7.3 7.6 7.7 7.9 7.9 7.3 7.4 7.0 6.5 6.7 6.5 6.4 6.3 6.7 6.6 6.5 6.8 6.9 6.5 6.3 7.3 6.5 6.3 6.4 6.3 6.2 6.5 6.4 6.2 5.9 5.9 6.1 6.5 7.2 6.7 6.9
Wind_Speed
1 1 2 2 2 5 4 3 0 4 1 1 5 2 1 4 1 2 10 12 20 19 22 22 22 21 21 21 22 22 21 20 20 19 18 16 15 14 12 14 13 12 12 13 16 17 11 9 10
1 2 2 2 4 4 3 2 3 3 1 1 5 4 1 4 5 10 14 19 21 22 23 23 22 22 22 21 21 22 21 20 19 19 17 15 14 13 13 14 13 11 10 12 12 15 12 9 8
2 2 2 3 3 4 5 7 7 4 4 1 3 6 3 3 8 17 13 22 22 19 22 23 22 22 22 22 21 20 21 19 16 16 15 15 15 14 14 14 13 10 9 10 10 10 9 9 6
0 1 3 5 9 2 3 5 4 2 3 3 6 6 5 4 14 8 21 21 19 18 21 23 23 23 22 21 20 20 19 18 16 15 15 13 11 12 12 14 12 10 8 8 10 8 8 5 7
2 2 4 5 4 2 3 3 4 3 1 3 1 4 6 4 9 18 20 18 19 18 21 22 22 21 21 21 20 19 17 16 17 15 14 13 12 11 12 11 10 10 8 7 7 8 7 6 5
2 1 4 7 6 2 2 4 2 1 2 5 7 8 4 5 15 19 19 18 18 18 20 22 21 21 21 21 20 18 17 16 15 14 13 11 10 8 7 8 8 8 7 6 5 5 6 5 5
3 3 4 4 4 1 1 3 3 4 4 5 9 5 4 10 15 17 17 16 16 20 20 20 18 21 22 21 20 18 17 15 15 15 13 10 9 6 4 3 4 5 5 4 4 3 3 5 5
2 2 5 2 2 0 2 5 4 2 4 7 5 4 6 11 17 15 15 15 16 14 17 19 15 16 17 20 20 18 16 15 15 16 14 11 6 6 8 3 3 4 4 3 2 2 3 6 7
1 3 3 6 6 1 4 5 2 3 4 3 2 3 9 23 20 15 14 13 14 13 14 16 16 17 15 14 15 17 17 16 16 17 15 15 9 12 11 10 4 3 3 2 3 4 4 3 8
1 1 4 3 6 4 9 7 5 4 5 3 7 11 20 22 20 19 18 16 17 16 16 14 16 18 18 15 13 12 13 13 13 13 13 12 11 11 10 6 3 5 4 3 3 4 7 9 9
1 1 2 1 7 4 9 7 5 5 5 7 10 17 20 21 18 19 18 17 18 17 13 15 13 17 17 14 13 12 9 10 11 11 11 10 9 8 6 5 5 3 2 3 4 5 5 8 10
2 3 4 2 5 5 7 5 4 8 1 1 13 20 21 21 19 19 18 17 17 16 16 16 15 13 15 13 14 11 7 9 10 10 11 10 8 7 5 4 5 4 3 4 4 4 4 6 9
2 2 1 4 9 5 5 5 4 7 4 5 15 18 19 18 17 14 14 14 15 16 18 17 15 13 14 12 12 7 9 9 9 11 12 10 8 7 5 5 5 7 3 4 3 5 5 6 8
5 6 6 4 7 8 7 3 4 2 6 11 15 16 16 18 17 14 16 14 15 14 14 15 16 14 16 11 11 8 11 9 9 9 11 11 9 6 6 5 6 7 7 5 4 5 4 5 6
5 4 4 1 8 6 9 3 10 5 8 11 12 14 15 16 16 17 17 17 13 13 14 16 16 16 13 12 12 11 10 8 7 12 10 12 10 8 7 5 5 6 6 6 5 5 5 4 2
2 3 2 2 7 3 10 9 7 11 11 11 12 12 14 16 17 16 16 14 12 10 14 10 10 13 10 11 11 11 11 11 11 10 11 12 11 9 8 6 5 5 5 5 5 4 3 0 3
7 2 4 4 8 4 11 5 0 10 10 11 12 12 12 12 13 15 16 16 16 15 14 12 9 6 9 11 11 12 12 10 11 9 10 10 9 9 10 8 7 7 6 4 4 4 2 1 4
3 3 4 4 2 8 10 5 3 10 12 11 11 11 11 12 14 12 12 13 13 13 13 12 11 10 9 9 8 6 6 8 8 10 9 6 8 9 11 9 9 8 5 4 4 3 1 1 2
3 1 5 3 2 2 7 8 8 10 11 11 12 12 13 13 9 10 10 9 12 10 10 15 14 13 9 7 7 7 8 6 6 9 9 10 6 8 11 9 9 8 6 5 4 2 3 1 1
0 6 4 0 8 1 3 6 6 11 13 14 13 12 14 12 10 9 10 10 10 11 15 17 16 13 9 7 6 5 5 4 4 5 5 6 5 9 10 7 7 7 5 6 5 4 1 1 1
3 5 2 5 9 2 4 5 6 6 11 9 9 10 11 12 11 9 10 12 10 11 14 16 12 14 9 10 5 4 3 3 2 2 2 3 7 9 9 11 8 6 6 5 5 5 4 2 3
6 3 5 7 3 4 2 4 5 7 12 10 10 11 11 10 8 9 10 11 11 10 10 12 12 11 10 11 8 9 4 5 2 1 2 3 8 9 9 9 10 7 5 5 5 5 4 3 3
4 2 6 5 3 3 4 4 3 2 10 14 13 12 12 9 9 9 10 11 12 9 11 11 10 8 8 9 9 6 7 5 1 2 2 3 3 6 8 10 10 7 6 7 6 5 5 4 2
6 3 3 1 1 4 1 4 7 5 5 2 11 13 11 9 8 8 8 9 11 9 10 9 11 9 8 10 10 10 8 7 4 4 3 3 3 4 8 10 9 9 7 8 7 6 7 5 5
3 3 3 4 3 6 2 3 9 8 8 7 6 14 12 10 10 9 10 10 10 11 11 9 10 10 10 10 9 9 8 6 5 3 3 3 3 4 7 9 8 8 9 8 7 8 8 7 6
6 5 4 5 5 3 1 5 6 5 7 7 6 11 12 11 10 11 11 11 11 12 12 10 10 9 10 9 9 7 7 4 4 2 2 5 5 4 6 8 9 9 9 9 8 6 7 7 7
6 5 2 3 1 4 2 6 11 8 9 6 6 10 14 13 12 11 11 11 12 12 12 12 10 10 9 9 8 9 8 7 5 5 3 4 6 5 7 8 8 8 8 9 8 7 8 7 7
3 7 3 1 4 10 5 5 9 9 8 12 12 12 15 13 12 11 11 12 11 11 11 12 11 11 10 10 8 6 5 6 5 4 4 6 5 4 5 7 7 8 8 8 8 7 7 8 7
4 4 2 1 2 6 8 7 7 11 10 11 15 13 16 14 13 11 10 11 10 9 10 11 10 10 8 8 7 7 6 5 5 5 5 4 4 2 5 6 7 7 7 7 7 7 7 8 8
1 4 7 4 4 2 4 10 3 6 7 9 10 14 12 14 13 12 11 11 11 11 10 10 9 8 8 8 8 6 4 7 6 6 6 6 5 4 4 4 3 3 4 6 8 8 7 9 9
Wind_Direction
246 273 200 159 84 60 64 65 267 18 141 79 193 196 240 57 12 72 146 149 143 146 145 139 132 130 128 120 119 119 125 128 129 137 143 141 135 134 137 123 121 123 123 122 128 116 107 110 107
286 222 37 77 82 96 70 122 289 218 198 129 129 130 95 84 65 125 140 153 148 146 146 143 138 131 128 124 124 124 127 132 137 142 141 141 141 144 139 128 125 129 130 128 120 111 119 117 113
233 37 69 70 89 111 130 179 201 238 205 37 140 57 43 57 115 146 133 148 146 147 148 143 139 133 131 130 129 129 134 138 139 136 137 139 142 144 129 126 130 133 128 131 125 128 115 107 125
326 71 79 82 98 117 112 152 164 220 133 136 116 74 87 16 147 149 147 149 147 148 147 143 139 137 134 134 133 134 135 139 138 139 140 136 131 125 126 132 134 133 132 129 133 141 146 116 146
45 64 74 89 85 119 153 101 138 41 40 59 120 91 91 29 127 142 145 150 149 149 147 147 141 141 139 137 138 138 140 141 143 143 138 132 134 137 134 136 129 128 126 125 134 141 148 150 161
80 100 93 99 122 178 228 164 178 123 56 122 105 106 97 121 137 149 149 153 153 148 149 149 150 146 143 143 142 143 146 147 136 134 128 126 122 121 117 122 128 127 120 118 133 146 160 157 163
75 75 76 106 106 150 189 151 169 126 121 108 133 99 115 152 149 153 152 151 155 152 152 155 158 153 153 151 150 152 151 148 142 136 119 100 99 94 124 134 141 140 128 127 139 170 204 216 189
92 93 121 116 143 345 142 167 149 178 125 138 170 147 167 169 153 147 150 153 157 159 160 159 162 166 160 158 159 159 157 154 149 132 129 87 75 40 307 263 200 174 146 134 148 181 211 223 214
150 95 145 149 172 182 201 187 150 129 129 129 95 125 132 148 149 147 149 156 161 168 168 167 168 170 170 166 168 165 170 166 161 152 160 155 177 190 260 272 232 207 173 283 261 239 229 243 241
20 115 200 193 175 194 182 191 162 176 184 166 90 93 134 147 156 160 169 171 172 171 179 177 179 179 178 177 179 179 179 171 169 166 166 166 182 208 242 245 243 272 269 353 322 304 240 210 229
42 58 167 192 206 218 169 193 176 189 208 205 181 149 153 155 167 172 177 179 177 176 182 186 189 188 185 185 185 189 189 173 174 169 165 176 194 209 229 246 241 250 285 289 306 298 223 227 215
327 192 251 310 195 187 182 155 192 211 169 248 178 161 160 167 174 179 179 179 180 181 186 189 196 196 196 195 190 191 180 173 187 188 181 191 196 212 219 242 271 260 246 269 273 272 274 244 218
216 346 158 257 174 204 154 187 203 245 274 102 149 162 170 173 180 181 180 183 185 192 186 187 191 198 197 204 198 169 202 186 195 197 202 206 212 226 238 246 243 238 233 266 265 273 264 240 229
314 297 277 181 175 180 191 209 211 116 125 133 155 167 175 183 182 176 183 185 195 189 196 186 190 194 200 205 206 195 202 207 199 203 215 211 222 237 253 252 253 237 222 245 266 290 299 290 257
298 347 128 158 178 175 153 226 227 138 156 156 168 172 182 192 187 191 191 193 192 196 193 193 190 188 198 204 207 213 217 202 223 217 198 234 224 220 247 258 254 233 219 240 257 272 278 243 192
50 50 23 359 164 170 192 259 193 163 174 174 182 184 190 198 198 195 197 194 199 215 201 185 175 183 199 208 204 218 217 229 232 215 208 222 228 228 236 238 239 236 219 232 251 266 261 128 252
32 46 8 356 188 148 204 300 137 177 194 189 195 200 205 204 205 204 205 204 195 202 196 162 156 164 179 213 213 220 228 226 250 246 223 214 228 211 229 228 230 225 234 228 253 262 283 82 277
41 15 348 303 17 206 203 237 205 196 208 212 211 211 214 213 211 203 213 215 211 202 183 159 160 193 199 219 216 227 235 238 223 242 240 232 225 218 228 215 234 224 228 216 238 285 15 226 320
114 329 309 285 79 175 210 242 222 203 216 219 219 216 225 221 213 206 206 209 210 190 164 162 174 203 192 201 204 224 227 227 225 227 231 220 230 228 222 215 215 213 217 215 217 249 227 274 325
87 312 334 322 56 350 221 230 235 218 227 226 227 225 231 224 208 205 211 203 187 181 188 175 187 195 199 209 199 213 210 227 244 236 229 235 239 224 206 236 206 201 206 208 211 224 260 221 254
318 299 307 339 338 92 171 257 241 234 241 236 232 244 234 232 223 213 208 203 195 192 192 185 185 196 196 210 205 194 183 189 233 242 141 189 198 219 205 210 217 201 214 206 205 209 222 238 218
297 237 323 302 268 268 238 285 257 236 252 238 233 218 224 218 208 197 202 194 195 191 185 176 181 186 198 198 210 228 221 239 216 221 154 202 199 197 210 216 206 201 204 209 205 200 217 225 265
262 221 289 319 218 233 205 251 265 305 269 248 216 212 211 203 195 192 196 193 198 188 179 175 177 187 195 195 213 221 233 252 215 136 189 255 263 224 222 210 206 208 210 205 206 197 207 214 255
280 269 42 110 211 256 160 253 274 247 247 280 208 200 200 188 181 180 179 186 193 185 174 176 187 195 187 195 204 217 231 239 237 195 224 218 237 233 217 208 215 214 217 211 206 208 214 221 240
198 251 258 224 216 278 83 223 259 260 257 250 234 202 194 181 175 175 178 193 187 186 187 187 183 188 185 188 199 208 211 226 253 271 290 296 253 220 223 218 215 214 215 213 213 212 221 216 231
189 234 246 260 245 324 192 239 250 292 312 246 230 210 188 183 182 183 182 195 192 193 198 193 187 192 183 189 191 195 210 217 230 258 21 323 299 210 227 220 221 219 214 209 209 219 224 219 223
161 203 54 144 116 257 269 266 278 268 250 219 210 195 190 186 188 187 181 195 195 197 204 198 191 191 189 194 193 197 201 210 194 179 180 240 267 240 219 212 214 213 213 212 206 218 219 228 227
256 134 194 212 242 270 255 272 266 277 260 222 216 202 193 186 188 186 189 193 199 198 198 195 192 191 192 190 196 194 194 216 200 189 207 210 214 195 189 202 202 203 202 204 206 206 211 218 225
148 184 91 180 249 278 287 278 225 256 266 246 222 206 195 184 191 187 191 190 196 192 186 184 186 185 180 180 181 188 189 186 147 168 170 111 104 112 159 167 184 211 189 194 203 223 218 223 227
294 276 210 245 210 238 306 270 201 265 286 267 237 210 190 192 191 186 194 182 185 185 189 187 180 178 177 169 173 169 159 134 121 108 99 98 98 91 87 125 167 199 200 211 199 211 222 229 231